This is the latest recevied weather packets stored in our database for station/object AF9W-5. If no packets are shown the sender has not sent any weather packets the latest 1 day(s).
| Time | Temp. | Humidity | Pressure | Rain* | Wind** | Luminosity | Snow |
|---|---|---|---|---|---|---|---|
| 1777970772 | 13.33° C | 93% | 1012.8 hPa | 1.27 mm | 0 m/s | 0 W/m² | - |
| 1777970470 | 13.33° C | 93% | 1012.8 hPa | 1.27 mm | 0 m/s | 0 W/m² | - |
| 1777970167 | 13.33° C | 93% | 1013 hPa | 1.78 mm | 0 m/s | 0 W/m² | - |
| 1777969863 | 13.33° C | 93% | 1013.3 hPa | 1.78 mm | 0 m/s | 0 W/m² | - |
| 1777969559 | 13.33° C | 93% | 1013.4 hPa | 1.27 mm | 0.89 m/s, 189° | 0 W/m² | - |
| 1777969256 | 13.33° C | 93% | 1013.3 hPa | 3.05 mm | 0.45 m/s, 169° | 0 W/m² | - |
| 1777968953 | 13.33° C | 94% | 1013.4 hPa | 1.78 mm | 0.45 m/s, 143° | 0 W/m² | - |
| 1777968650 | 13.33° C | 94% | 1013.7 hPa | 1.27 mm | 0 m/s | 0 W/m² | - |
| 1777968346 | 13.33° C | 94% | 1013.9 hPa | 1.27 mm | 0 m/s | 0 W/m² | - |
| 1777968043 | 13.33° C | 93% | 1013.9 hPa | 1.78 mm | 0.89 m/s, 160° | 0 W/m² | - |
| 1777967738 | 13.33° C | 93% | 1013.9 hPa | 3.05 mm | 0.89 m/s, 166° | 0 W/m² | - |
| 1777967436 | 13.33° C | 93% | 1014.1 hPa | 3.05 mm | 1.79 m/s, 158° | 0 W/m² | - |
| 1777967133 | 13.33° C | 93% | 1014.1 hPa | 3.56 mm | 0.89 m/s, 159° | 0 W/m² | - |
| 1777966830 | 13.89° C | 93% | 1014.2 hPa | 3.05 mm | 0 m/s | 0 W/m² | - |
| 1777966527 | 13.89° C | 93% | 1014.4 hPa | 3.05 mm | 0 m/s | 0 W/m² | - |
| 1777966226 | 13.33° C | 93% | 1014.5 hPa | 1.78 mm | 0.45 m/s, 120° | 0 W/m² | - |
| 1777965921 | 13.89° C | 93% | 1014.5 hPa | 1.27 mm | 0.45 m/s, 137° | 0 W/m² | - |
| 1777965617 | 13.89° C | 93% | 1014.6 hPa | 3.05 mm | 0 m/s | 0 W/m² | - |
| 1777965313 | 13.89° C | 93% | 1014.2 hPa | 1.78 mm | 0 m/s | 0 W/m² | - |
| 1777965011 | 13.89° C | 93% | 1014.2 hPa | 1.27 mm | 0 m/s | 0 W/m² | - |
| 1777964708 | 13.89° C | 93% | 1014.4 hPa | 1.27 mm | 0.45 m/s, 124° | 0 W/m² | - |
| 1777964404 | 13.89° C | 93% | 1014.5 hPa | 1.78 mm | 0 m/s | 0 W/m² | - |
| 1777964100 | 13.89° C | 93% | 1014.2 hPa | 3.05 mm | 0 m/s | 0 W/m² | - |
| 1777963797 | 13.89° C | 93% | 1014 hPa | 1.27 mm | 0 m/s | 0 W/m² | - |
| 1777963493 | 13.89° C | 93% | 1014.4 hPa | 3.05 mm | 0.45 m/s, 166° | 0 W/m² | - |
* Rain latest hour (hover to see other rain measurements)
** Current wind speed in m/s (hover to see current wind gust speed)